Content
SEND FEEDBACK

Daily
Averages
Monthly
Summary
United States of America

NEW YORK, NEW YORK


Home > North America > United States > New York
Elevation: 131 feet     Latitude: 40 47N     Longitude: 073 58W

WEATHER
 
SELECT A DAY
Number of Records: 148,109;   Date Range: 11/1/95 - 7/29/14
 
SHARE

PRINT THIS DATA

[ ← Previous Day ]
WEATHER ALMANAC - NOVEMBER 22, 2013
[ Next Day → ]
[ °C ]   °F
Weather ElementAverageHighLow
Temperature53.4 °F57 °F (3:51 pm)51.1 °F (1:51 am)
Dewpoint45.5 °F48 °F (10:51 am)39 °F (1:51 am)
Humidity74.8 %89 % (10:51 am)62 % (1:46 am)
Barometer30.12 in30.38 in (1:46 am)29.91 in (11:51 pm)
Wind Speed6.3 mph11.5 mph (2:51 pm)
Wind Gust18.4 mph (11:10 am)
Weather ElementAverage
Visibility8.4 mi
Wind DirectionESE (104.7 °)

Weather ElementTotal
Precipitation0.10 in
Heating Degree Days11 (Base 65)
Growing Degree Days4.1 (Base 50)
Averaged from 32 records on November 22, 2013
WEATHER CONDITIONS BREAKOUT
WIND DIRECTION BREAKOUT
WEATHER BY HOUR - NOVEMBER 22, 2013
[ °C ]   °F
Local TimeTemperatureDewpointHumidityBarometerVisibilityWind DirectionWind SpeedGust SpeedPrecipitationEventsConditions
1:46 AM51.8 °F39.2 °F62 %30.38 in10.0 miVariable4.6 mphOvercast
1:51 AM51.1 °F39.0 °F63 %30.35 in10.0 miVariable3.5 mphOvercast
2:51 AM52.0 °F39.9 °F63 %30.32 in10.0 miWSW (240°)4.6 mphOvercast
3:51 AM53.1 °F41.0 °F64 %30.29 in10.0 miNorthOvercast
4:51 AM52.0 °F42.1 °F69 %30.27 in10.0 miNorthOvercast
5:12 AM52.0 °F43.0 °F71 %30.28 in10.0 miCalmOvercast
5:51 AM52.0 °F46.0 °F80 %30.25 in10.0 miNorth0.00 inRainLight Rain
6:21 AM53.1 °F46.0 °F77 %30.25 in10.0 miWSW (240°)5.8 mph0.01 inOvercast
6:51 AM52.0 °F46.0 °F80 %30.22 in10.0 miNorth0.01 inOvercast
7:51 AM52.0 °F46.9 °F83 %30.21 in5.0 miWest (260°)8.1 mph0.00 inRainLight Rain
8:37 AM52.0 °F46.9 °F83 %30.22 in8.0 miVariable6.9 mph0.01 inOvercast
8:51 AM51.1 °F46.9 °F86 %30.19 in4.0 miVariable6.9 mph0.02 inRainRain
9:47 AM51.8 °F46.4 °F82 %30.19 in6.0 miVariable5.8 mph0.01 inOvercast
9:51 AM51.1 °F46.9 °F86 %30.17 in6.0 miNorth0.01 inOvercast
10:51 AM51.1 °F48.0 °F89 %30.14 in5.0 miWest (260°)9.2 mph0.03 inOvercast
11:10 AM51.1 °F46.9 °F86 %30.14 in6.0 miWest (260°)8.1 mph18.4 mphOvercast
11:51 AM52.0 °F46.9 °F83 %30.10 in6.0 miWest (260°)10.4 mphHaze
12:51 PM54.0 °F46.9 °F77 %30.07 in6.0 miNorthHaze
1:02 PM54.0 °F46.9 °F77 %30.09 in7.0 miWest (260°)8.1 mphScattered Clouds
1:51 PM55.9 °F46.9 °F72 %30.04 in8.0 miWest (270°)6.9 mphClear
2:51 PM55.9 °F46.9 °F72 %30.03 in9.0 miWSW (250°)11.5 mphClear
3:51 PM57.0 °F46.0 °F67 %30.01 in10.0 miVariable4.6 mphClear
4:51 PM55.9 °F46.0 °F69 %29.99 in10.0 miVariable4.6 mphClear
5:51 PM55.9 °F46.0 °F69 %29.99 in10.0 miVariable4.6 mphPartly Cloudy
6:51 PM55.9 °F46.0 °F69 %29.97 in10.0 miVariable4.6 mphOvercast
7:51 PM55.9 °F46.0 °F69 %29.96 in10.0 miWSW (250°)6.9 mphOvercast
8:51 PM55.9 °F46.0 °F69 %29.95 in10.0 miVariable5.8 mphOvercast
9:51 PM55.0 °F46.9 °F74 %29.92 in9.0 miVariable3.5 mphOvercast
10:39 PM55.0 °F46.9 °F74 %29.94 in8.0 miWest (260°)6.9 mphMostly Cloudy
10:51 PM54.0 °F46.9 °F77 %29.92 in8.0 miVariable5.8 mphOvercast
11:01 PM54.0 °F46.9 °F77 %29.94 in8.0 miWest (260°)8.1 mphOvercast
11:51 PM54.0 °F46.0 °F75 %29.91 in9.0 miWest (280°)6.9 mphMostly Cloudy
Hourly data recorded from KNYC, located miles away from New York, New York







STORIES FROM OUR PARTNERS